QPF
0.04 0.05 0.05 0.05 0.04 0.07 0.10 0.10 0.07 0.07 0.06 0.05 0.05 0.06 0.05 0.02 0.02 0.03 0.04 0.02 0.02 0.03 0.04 0.05 0.06 0.06 0.05 0.05 0.06 0.06 0.05 0.05 0.04 0.03 0.03 0.03 0.04 0.04 0.03 0.03 0.04 0.05 0.04
0.04 0.05 0.06 0.08 0.07 0.06 0.09 0.08 0.07 0.07 0.07 0.06 0.04 0.04 0.05 0.04 0.04 0.05 0.05 0.04 0.02 0.01 0.02 0.04 0.06 0.07 0.06 0.05 0.06 0.06 0.05 0.04 0.03 0.03 0.03 0.03 0.03 0.03 0.03 0.03 0.03 0.04 0.03
0.05 0.08 0.07 0.08 0.07 0.07 0.08 0.07 0.06 0.06 0.05 0.04 0.04 0.05 0.06 0.05 0.04 0.04 0.04 0.05 0.04 0.01 0.02 0.04 0.05 0.06 0.05 0.06 0.07 0.06 0.05 0.04 0.04 0.03 0.04 0.04 0.04 0.04 0.03 0.05 0.05 0.03 0.02
0.06 0.09 0.08 0.07 0.06 0.08 0.10 0.08 0.06 0.06 0.06 0.06 0.05 0.05 0.05 0.04 0.04 0.03 0.02 0.03 0.04 0.03 0.03 0.03 0.05 0.05 0.06 0.07 0.09 0.08 0.06 0.05 0.03 0.03 0.04 0.04 0.04 0.04 0.05 0.07 0.06 0.03 0.02
0.05 0.08 0.09 0.08 0.07 0.08 0.10 0.08 0.05 0.07 0.06 0.06 0.06 0.05 0.04 0.03 0.02 0.01 0.02 0.02 0.03 0.03 0.05 0.03 0.04 0.04 0.04 0.05 0.06 0.07 0.07 0.05 0.04 0.03 0.03 0.03 0.04 0.04 0.04 0.04 0.06 0.03 0.02
0.04 0.06 0.09 0.10 0.08 0.09 0.09 0.07 0.07 0.07 0.05 0.04 0.04 0.04 0.03 0.02 0.01 0.01 0.01 0.01 0.02 0.03 0.05 0.04 0.04 0.03 0.03 0.04 0.06 0.08 0.08 0.06 0.06 0.05 0.04 0.03 0.03 0.03 0.04 0.04 0.07 0.03 0.02
0.05 0.09 0.09 0.09 0.07 0.07 0.08 0.07 0.06 0.06 0.05 0.05 0.06 0.06 0.04 0.02 0.01 0.02 0.01 0.01 0.02 0.04 0.04 0.05 0.06 0.04 0.04 0.05 0.05 0.07 0.08 0.08 0.07 0.06 0.06 0.05 0.04 0.03 0.03 0.06 0.09 0.04 0.02
0.06 0.13 0.09 0.08 0.07 0.07 0.08 0.07 0.05 0.04 0.04 0.04 0.06 0.07 0.06 0.04 0.03 0.01 0.01 0.01 0.02 0.04 0.03 0.04 0.04 0.04 0.04 0.04 0.05 0.06 0.10 0.11 0.09 0.08 0.06 0.04 0.02 0.03 0.05 0.08 0.10 0.06 0.03
0.06 0.11 0.09 0.08 0.07 0.05 0.06 0.06 0.05 0.04 0.04 0.03 0.04 0.05 0.06 0.06 0.04 0.03 0.02 0.02 0.03 0.04 0.03 0.04 0.04 0.03 0.02 0.03 0.05 0.05 0.07 0.09 0.08 0.08 0.08 0.05 0.03 0.04 0.06 0.05 0.06 0.05 0.05
0.04 0.07 0.08 0.07 0.05 0.05 0.06 0.05 0.04 0.05 0.06 0.06 0.05 0.03 0.03 0.04 0.05 0.06 0.04 0.02 0.03 0.04 0.03 0.03 0.03 0.03 0.02 0.02 0.04 0.06 0.07 0.08 0.06 0.06 0.07 0.05 0.04 0.05 0.07 0.05 0.04 0.04 0.06
0.04 0.05 0.07 0.07 0.06 0.06 0.06 0.05 0.05 0.06 0.05 0.05 0.05 0.04 0.03 0.03 0.04 0.06 0.06 0.05 0.04 0.03 0.03 0.02 0.03 0.03 0.03 0.04 0.05 0.07 0.07 0.06 0.05 0.04 0.04 0.03 0.03 0.05 0.07 0.07 0.04 0.05 0.06
0.05 0.03 0.03 0.06 0.05 0.05 0.05 0.05 0.05 0.05 0.05 0.05 0.05 0.03 0.04 0.05 0.05 0.05 0.05 0.05 0.05 0.04 0.03 0.02 0.03 0.03 0.04 0.05 0.05 0.04 0.03 0.02 0.02 0.03 0.03 0.02 0.02 0.03 0.07 0.08 0.07 0.06 0.05
0.07 0.05 0.04 0.05 0.04 0.04 0.04 0.04 0.04 0.05 0.05 0.05 0.05 0.05 0.04 0.04 0.05 0.05 0.04 0.04 0.04 0.04 0.04 0.03 0.02 0.03 0.04 0.04 0.04 0.02 0.01 0.02 0.02 0.02 0.02 0.02 0.02 0.02 0.06 0.08 0.10 0.07 0.05
0.06 0.04 0.03 0.04 0.05 0.05 0.04 0.04 0.05 0.05 0.04 0.05 0.04 0.05 0.05 0.05 0.06 0.05 0.04 0.04 0.05 0.05 0.05 0.05 0.04 0.04 0.04 0.03 0.02 0.01 0.01 0.02 0.01 0.01 0.01 0.02 0.02 0.02 0.03 0.04 0.06 0.05 0.05
0.04 0.03 0.02 0.03 0.03 0.03 0.03 0.03 0.04 0.04 0.04 0.04 0.04 0.05 0.04 0.04 0.05 0.05 0.04 0.03 0.05 0.06 0.07 0.06 0.06 0.05 0.03 0.02 0.01 0.01 0.01 0.01 0.01 0.01 0.01 0.02 0.02 0.02 0.02 0.03 0.04 0.04 0.04
0.03 0.03 0.02 0.02 0.02 0.02 0.02 0.02 0.03 0.04 0.03 0.03 0.04 0.04 0.05 0.04 0.04 0.04 0.04 0.03 0.04 0.05 0.07 0.06 0.05 0.03 0.02 0.01 0.01 0.01 0.01 0.01 0.00 0.00 0.01 0.01 0.02 0.02 0.01 0.02 0.03 0.03 0.02
0.05 0.04 0.03 0.02 0.02 0.02 0.02 0.02 0.03 0.03 0.04 0.04 0.03 0.04 0.04 0.04 0.05 0.05 0.05 0.04 0.04 0.05 0.07 0.06 0.05 0.04 0.03 0.03 0.01 0.01 0.01 0.01 0.00 0.00 0.00 0.01 0.01 0.02 0.02 0.01 0.01 0.02 0.01
0.04 0.04 0.04 0.03 0.02 0.03 0.03 0.02 0.02 0.02 0.03 0.04 0.04 0.03 0.03 0.03 0.03 0.05 0.05 0.05 0.05 0.05 0.06 0.07 0.06 0.04 0.03 0.03 0.03 0.02 0.01 0.00 0.01 0.01 0.00 0.01 0.01 0.01 0.02 0.01 0.01 0.01 0.01
0.04 0.05 0.06 0.05 0.03 0.04 0.03 0.02 0.02 0.02 0.02 0.03 0.04 0.04 0.03 0.03 0.03 0.04 0.05 0.06 0.04 0.03 0.04 0.06 0.06 0.05 0.03 0.02 0.03 0.03 0.02 0.02 0.01 0.01 0.00 0.00 0.00 0.01 0.01 0.02 0.01 0.01 0.01
0.04 0.04 0.05 0.06 0.06 0.04 0.03 0.02 0.02 0.03 0.03 0.03 0.02 0.03 0.04 0.03 0.05 0.06 0.05 0.07 0.06 0.05 0.05 0.05 0.06 0.07 0.05 0.03 0.03 0.03 0.02 0.02 0.01 0.01 0.01 0.00 0.00 0.01 0.01 0.01 0.02 0.01 0.01
0.09 0.08 0.07 0.05 0.04 0.03 0.03 0.03 0.03 0.03 0.04 0.05 0.04 0.04 0.03 0.03 0.03 0.03 0.03 0.05 0.05 0.05 0.04 0.04 0.05 0.07 0.05 0.04 0.04 0.03 0.03 0.02 0.02 0.02 0.02 0.01 0.00 0.01 0.01 0.01 0.02 0.02 0.01
0.08 0.09 0.10 0.08 0.04 0.02 0.02 0.02 0.02 0.03 0.03 0.04 0.04 0.04 0.04 0.03 0.01 0.01 0.01 0.01 0.02 0.04 0.03 0.04 0.03 0.04 0.05 0.04 0.05 0.04 0.04 0.04 0.03 0.02 0.03 0.04 0.01 0.01 0.01 0.01 0.02 0.02 0.02
0.04 0.05 0.06 0.06 0.04 0.03 0.02 0.01 0.01 0.02 0.03 0.04 0.05 0.05 0.02 0.01 0.01 0.01 0.01 0.01 0.01 0.01 0.02 0.03 0.03 0.03 0.04 0.04 0.06 0.05 0.05 0.04 0.03 0.02 0.03 0.05 0.03 0.02 0.01 0.01 0.02 0.03 0.03
0.03 0.04 0.04 0.04 0.03 0.03 0.02 0.01 0.01 0.02 0.03 0.03 0.03 0.04 0.02 0.01 0.01 0.02 0.03 0.02 0.02 0.02 0.02 0.01 0.02 0.02 0.03 0.04 0.05 0.05 0.06 0.05 0.03 0.02 0.04 0.05 0.04 0.03 0.02 0.02 0.03 0.03 0.05
0.03 0.03 0.03 0.04 0.04 0.04 0.03 0.02 0.01 0.01 0.02 0.02 0.02 0.02 0.02 0.02 0.02 0.03 0.04 0.03 0.02 0.02 0.01 0.01 0.02 0.02 0.02 0.02 0.03 0.03 0.03 0.04 0.05 0.04 0.04 0.05 0.05 0.05 0.04 0.03 0.02 0.04 0.06
0.04 0.04 0.03 0.03 0.03 0.03 0.03 0.02 0.01 0.01 0.01 0.02 0.02 0.01 0.02 0.02 0.02 0.02 0.02 0.03 0.02 0.02 0.02 0.02 0.02 0.02 0.01 0.02 0.02 0.02 0.03 0.03 0.04 0.05 0.04 0.04 0.05 0.06 0.06 0.05 0.03 0.03 0.04
MSLP
1010.40 1010.44 1010.44 1010.41 1010.36 1010.30 1010.25 1010.19 1010.13 1010.05 1009.95 1009.80 1009.63 1009.44 1009.25 1009.10 1009.01 1009.00 1009.08 1009.22 1009.40 1009.58 1009.71 1009.78 1009.75 1009.65 1009.48 1009.29 1009.10 1008.93 1008.82 1008.75 1008.71 1008.69 1008.67 1008.62 1008.56 1008.47 1008.36 1008.25 1008.15 1008.09 1008.06
1010.18 1010.24 1010.27 1010.27 1010.25 1010.23 1010.20 1010.17 1010.15 1010.11 1010.06 1009.97 1009.85 1009.69 1009.52 1009.37 1009.24 1009.18 1009.17 1009.23 1009.33 1009.45 1009.55 1009.61 1009.61 1009.55 1009.44 1009.31 1009.16 1009.03 1008.92 1008.84 1008.77 1008.72 1008.66 1008.58 1008.48 1008.35 1008.20 1008.06 1007.92 1007.81 1007.74
1009.96 1010.06 1010.13 1010.17 1010.20 1010.22 1010.23 1010.24 1010.26 1010.27 1010.26 1010.22 1010.14 1010.00 1009.84 1009.66 1009.48 1009.33 1009.23 1009.18 1009.19 1009.23 1009.29 1009.35 1009.38 1009.38 1009.35 1009.28 1009.21 1009.12 1009.04 1008.96 1008.89 1008.80 1008.70 1008.58 1008.44 1008.27 1008.08 1007.90 1007.72 1007.58 1007.47
1009.70 1009.84 1009.96 1010.05 1010.13 1010.20 1010.26 1010.32 1010.37 1010.43 1010.46 1010.46 1010.41 1010.30 1010.14 1009.93 1009.70 1009.47 1009.26 1009.11 1009.01 1008.97 1008.99 1009.03 1009.09 1009.15 1009.20 1009.22 1009.23 1009.21 1009.17 1009.11 1009.03 1008.92 1008.79 1008.62 1008.43 1008.21 1007.98 1007.76 1007.55 1007.37 1007.24
1009.36 1009.54 1009.71 1009.86 1009.99 1010.11 1010.21 1010.31 1010.40 1010.50 1010.58 1010.62 1010.62 1010.54 1010.39 1010.17 1009.89 1009.60 1009.30 1009.05 1008.86 1008.74 1008.69 1008.72 1008.80 1008.91 1009.03 1009.14 1009.23 1009.28 1009.30 1009.27 1009.19 1009.06 1008.89 1008.68 1008.44 1008.18 1007.90 1007.64 1007.40 1007.19 1007.03
1008.94 1009.15 1009.36 1009.56 1009.74 1009.90 1010.04 1010.17 1010.31 1010.45 1010.58 1010.67 1010.72 1010.70 1010.58 1010.38 1010.09 1009.76 1009.40 1009.07 1008.79 1008.59 1008.49 1008.49 1008.57 1008.71 1008.89 1009.08 1009.25 1009.37 1009.44 1009.44 1009.37 1009.23 1009.03 1008.77 1008.47 1008.16 1007.84 1007.52 1007.24 1007.01 1006.82
1008.44 1008.68 1008.92 1009.16 1009.38 1009.57 1009.75 1009.92 1010.10 1010.28 1010.46 1010.62 1010.74 1010.79 1010.74 1010.58 1010.32 1009.98 1009.60 1009.21 1008.87 1008.61 1008.45 1008.41 1008.47 1008.63 1008.85 1009.09 1009.32 1009.50 1009.62 1009.64 1009.58 1009.42 1009.18 1008.88 1008.52 1008.14 1007.76 1007.40 1007.08 1006.81 1006.60
1007.93 1008.17 1008.44 1008.71 1008.95 1009.17 1009.38 1009.58 1009.80 1010.03 1010.27 1010.51 1010.71 1010.84 1010.88 1010.80 1010.60 1010.29 1009.91 1009.50 1009.11 1008.80 1008.58 1008.50 1008.54 1008.69 1008.92 1009.20 1009.46 1009.68 1009.83 1009.88 1009.80 1009.62 1009.34 1008.98 1008.56 1008.12 1007.68 1007.27 1006.90 1006.60 1006.36
1007.43 1007.68 1007.96 1008.24 1008.51 1008.76 1008.99 1009.22 1009.47 1009.75 1010.06 1010.37 1010.66 1010.89 1011.02 1011.03 1010.91 1010.65 1010.30 1009.89 1009.49 1009.14 1008.88 1008.75 1008.76 1008.89 1009.12 1009.40 1009.68 1009.92 1010.08 1010.12 1010.03 1009.82 1009.50 1009.08 1008.60 1008.09 1007.59 1007.12 1006.71 1006.37 1006.12
1007.01 1007.26 1007.54 1007.83 1008.11 1008.38 1008.63 1008.89 1009.18 1009.50 1009.86 1010.24 1010.60 1010.92 1011.15 1011.25 1011.20 1011.01 1010.71 1010.32 1009.92 1009.55 1009.27 1009.10 1009.08 1009.18 1009.39 1009.66 1009.94 1010.17 1010.32 1010.35 1010.25 1010.00 1009.63 1009.16 1008.63 1008.06 1007.51 1006.99 1006.55 1006.18 1005.90
1006.69 1006.93 1007.21 1007.50 1007.79 1008.07 1008.34 1008.62 1008.94 1009.29 1009.69 1010.11 1010.53 1010.91 1011.21 1011.38 1011.41 1011.29 1011.03 1010.68 1010.30 1009.93 1009.64 1009.46 1009.41 1009.49 1009.68 1009.93 1010.19 1010.41 1010.55 1010.56 1010.43 1010.15 1009.75 1009.24 1008.67 1008.07 1007.47 1006.93 1006.46 1006.07 1005.77
1006.48 1006.71 1006.98 1007.27 1007.55 1007.84 1008.12 1008.42 1008.74 1009.11 1009.52 1009.96 1010.41 1010.82 1011.16 1011.38 1011.47 1011.40 1011.19 1010.89 1010.54 1010.20 1009.92 1009.74 1009.68 1009.75 1009.92 1010.15 1010.40 1010.60 1010.72 1010.72 1010.56 1010.27 1009.85 1009.33 1008.75 1008.13 1007.54 1006.99 1006.50 1006.11 1005.80
1006.38 1006.59 1006.85 1007.12 1007.40 1007.68 1007.96 1008.25 1008.58 1008.94 1009.34 1009.77 1010.21 1010.62 1010.96 1011.20 1011.32 1011.29 1011.14 1010.89 1010.59 1010.30 1010.05 1009.89 1009.85 1009.92 1010.08 1010.31 1010.54 1010.73 1010.83 1010.82 1010.67 1010.38 1009.97 1009.47 1008.90 1008.31 1007.74 1007.21 1006.74 1006.35 1006.05
1006.38 1006.56 1006.79 1007.03 1007.30 1007.56 1007.83 1008.11 1008.42 1008.75 1009.12 1009.51 1009.91 1010.29 1010.61 1010.85 1010.98 1010.98 1010.88 1010.69 1010.45 1010.22 1010.03 1009.91 1009.90 1009.99 1010.16 1010.38 1010.61 1010.79 1010.90 1010.89 1010.76 1010.50 1010.12 1009.67 1009.16 1008.63 1008.11 1007.63 1007.20 1006.84 1006.53
1006.43 1006.59 1006.78 1006.99 1007.23 1007.47 1007.72 1007.98 1008.25 1008.55 1008.86 1009.20 1009.54 1009.86 1010.15 1010.36 1010.49 1010.52 1010.47 1010.34 1010.18 1010.02 1009.90 1009.85 1009.88 1009.99 1010.18 1010.41 1010.63 1010.82 1010.93 1010.94 1010.84 1010.63 1010.31 1009.93 1009.51 1009.07 1008.63 1008.23 1007.86 1007.54 1007.25
1006.51 1006.63 1006.79 1006.97 1007.18 1007.40 1007.63 1007.85 1008.09 1008.34 1008.60 1008.87 1009.14 1009.41 1009.65 1009.84 1009.97 1010.02 1010.02 1009.96 1009.88 1009.79 1009.75 1009.75 1009.83 1009.98 1010.18 1010.41 1010.63 1010.82 1010.95 1010.98 1010.92 1010.76 1010.53 1010.24 1009.92 1009.59 1009.26 1008.95 1008.66 1008.38 1008.12
1006.59 1006.67 1006.79 1006.96 1007.14 1007.35 1007.55 1007.76 1007.96 1008.16 1008.37 1008.58 1008.79 1009.00 1009.20 1009.37 1009.50 1009.59 1009.64 1009.64 1009.64 1009.63 1009.64 1009.71 1009.82 1009.98 1010.19 1010.41 1010.63 1010.81 1010.94 1010.99 1010.97 1010.88 1010.72 1010.53 1010.32 1010.10 1009.89 1009.68 1009.48 1009.27 1009.05
1006.61 1006.67 1006.78 1006.93 1007.12 1007.32 1007.52 1007.71 1007.89 1008.05 1008.21 1008.37 1008.54 1008.70 1008.87 1009.03 1009.18 1009.30 1009.40 1009.47 1009.53 1009.58 1009.65 1009.74 1009.87 1010.03 1010.22 1010.42 1010.61 1010.78 1010.90 1010.96 1010.97 1010.92 1010.84 1010.73 1010.62 1010.51 1010.41 1010.31 1010.20 1010.07 1009.90
1006.58 1006.64 1006.75 1006.91 1007.11 1007.32 1007.53 1007.72 1007.89 1008.03 1008.16 1008.28 1008.41 1008.55 1008.70 1008.86 1009.03 1009.19 1009.33 1009.46 1009.57 1009.67 1009.76 1009.86 1009.98 1010.12 1010.27 1010.43 1010.58 1010.71 1010.80 1010.86 1010.88 1010.87 1010.83 1010.79 1010.76 1010.74 1010.73 1010.72 1010.71 1010.67 1010.58
1006.50 1006.57 1006.71 1006.90 1007.13 1007.37 1007.60 1007.80 1007.97 1008.10 1008.20 1008.29 1008.39 1008.51 1008.66 1008.83 1009.02 1009.22 1009.41 1009.58 1009.72 1009.84 1009.94 1010.03 1010.12 1010.21 1010.31 1010.40 1010.50 1010.58 1010.64 1010.67 1010.69 1010.68 1010.67 1010.67 1010.69 1010.73 1010.80 1010.88 1010.96 1011.01 1011.01
1006.41 1006.51 1006.69 1006.93 1007.21 1007.49 1007.74 1007.95 1008.11 1008.23 1008.30 1008.37 1008.44 1008.55 1008.69 1008.88 1009.09 1009.32 1009.54 1009.74 1009.91 1010.04 1010.13 1010.19 1010.23 1010.27 1010.30 1010.33 1010.36 1010.39 1010.41 1010.41 1010.41 1010.39 1010.39 1010.40 1010.44 1010.52 1010.63 1010.78 1010.93 1011.07 1011.17
1006.40 1006.53 1006.76 1007.05 1007.37 1007.68 1007.95 1008.17 1008.31 1008.40 1008.44 1008.47 1008.51 1008.59 1008.73 1008.92 1009.15 1009.40 1009.65 1009.87 1010.05 1010.18 1010.26 1010.29 1010.28 1010.26 1010.23 1010.21 1010.18 1010.16 1010.14 1010.11 1010.08 1010.05 1010.03 1010.03 1010.07 1010.15 1010.29 1010.47 1010.69 1010.91 1011.11
1006.55 1006.72 1006.99 1007.31 1007.66 1007.98 1008.26 1008.45 1008.55 1008.59 1008.58 1008.55 1008.55 1008.59 1008.71 1008.89 1009.13 1009.39 1009.66 1009.91 1010.09 1010.22 1010.28 1010.28 1010.24 1010.18 1010.10 1010.03 1009.97 1009.92 1009.88 1009.82 1009.77 1009.72 1009.67 1009.65 1009.66 1009.73 1009.86 1010.06 1010.31 1010.58 1010.86
1006.97 1007.17 1007.45 1007.79 1008.14 1008.44 1008.68 1008.81 1008.85 1008.81 1008.72 1008.61 1008.54 1008.54 1008.61 1008.77 1009.00 1009.28 1009.56 1009.81 1010.01 1010.14 1010.19 1010.18 1010.11 1010.03 1009.93 1009.84 1009.77 1009.71 1009.65 1009.60 1009.53 1009.46 1009.39 1009.34 1009.32 1009.35 1009.45 1009.62 1009.87 1010.17 1010.49
1007.73 1007.93 1008.21 1008.53 1008.84 1009.09 1009.24 1009.29 1009.23 1009.08 1008.88 1008.68 1008.52 1008.45 1008.47 1008.60 1008.81 1009.08 1009.37 1009.62 1009.83 1009.96 1010.01 1009.99 1009.93 1009.83 1009.74 1009.65 1009.58 1009.53 1009.49 1009.45 1009.39 1009.31 1009.22 1009.13 1009.07 1009.04 1009.09 1009.22 1009.43 1009.71 1010.04
1008.83 1009.01 1009.26 1009.52 1009.76 1009.92 1009.97 1009.90 1009.72 1009.44 1009.11 1008.80 1008.55 1008.39 1008.36 1008.44 1008.62 1008.88 1009.15 1009.41 1009.61 1009.75 1009.80 1009.78 1009.72 1009.63 1009.54 1009.47 1009.42 1009.39 1009.37 1009.35 1009.30 1009.22 1009.12 1009.00 1008.89 1008.81 1008.79 1008.85 1009.00 1009.23 1009.52
Thickness
5751 5749 5748 5746 5747 5746 5745 5743 5744 5743 5743 5744 5744 5745 5744 5744 5743 5742 5739 5736 5734 5732 5731 5730 5729 5727 5725 5724 5723 5721 5720 5718 5717 5716 5714 5713 5712 5711 5710 5709 5707 5705 5704
5748 5747 5747 5746 5745 5744 5743 5743 5743 5742 5743 5742 5743 5742 5742 5741 5740 5739 5739 5736 5734 5732 5731 5730 5728 5727 5725 5724 5722 5720 5719 5718 5716 5714 5713 5711 5710 5709 5708 5707 5705 5704 5702
5746 5745 5746 5745 5745 5743 5741 5741 5741 5741 5741 5741 5741 5740 5740 5739 5739 5738 5738 5738 5736 5732 5731 5729 5728 5726 5725 5723 5721 5720 5718 5717 5715 5713 5711 5710 5708 5707 5706 5705 5703 5702 5701
5744 5744 5745 5745 5743 5742 5741 5740 5740 5740 5739 5739 5739 5739 5740 5738 5737 5737 5738 5737 5736 5735 5731 5729 5727 5725 5724 5722 5721 5719 5717 5715 5714 5712 5710 5708 5707 5705 5704 5702 5701 5700 5699
5743 5743 5743 5742 5741 5741 5740 5740 5739 5738 5736 5736 5737 5737 5738 5737 5737 5737 5736 5736 5735 5734 5732 5728 5726 5725 5723 5722 5720 5717 5715 5714 5712 5710 5709 5707 5705 5703 5702 5700 5699 5698 5697
5743 5742 5741 5740 5740 5739 5738 5737 5735 5734 5734 5734 5736 5736 5736 5736 5736 5735 5735 5735 5733 5733 5732 5730 5728 5725 5722 5721 5719 5716 5714 5712 5710 5709 5707 5706 5704 5702 5700 5699 5697 5696 5695
5742 5740 5741 5739 5738 5737 5736 5735 5734 5732 5732 5732 5731 5731 5733 5735 5734 5733 5733 5734 5733 5731 5730 5729 5728 5727 5724 5720 5718 5715 5713 5711 5709 5707 5706 5704 5702 5701 5699 5697 5695 5694 5693
5740 5740 5738 5738 5736 5734 5733 5732 5730 5731 5730 5730 5728 5725 5725 5728 5729 5733 5731 5730 5731 5730 5729 5729 5727 5725 5725 5723 5718 5714 5712 5709 5707 5706 5704 5702 5701 5700 5698 5696 5694 5693 5691
5738 5737 5736 5736 5734 5734 5732 5730 5729 5726 5726 5727 5727 5725 5720 5720 5724 5729 5728 5728 5728 5728 5728 5727 5725 5724 5723 5721 5718 5713 5710 5708 5706 5704 5702 5701 5700 5698 5697 5695 5693 5692 5691
5736 5735 5734 5733 5732 5732 5729 5728 5728 5726 5723 5723 5724 5723 5722 5721 5717 5719 5724 5726 5726 5725 5725 5725 5724 5721 5720 5719 5715 5711 5708 5706 5704 5702 5700 5699 5698 5697 5696 5694 5693 5691 5690
5734 5733 5732 5730 5729 5729 5727 5726 5724 5723 5723 5722 5721 5721 5720 5718 5718 5715 5715 5718 5721 5724 5723 5722 5721 5720 5717 5715 5713 5709 5706 5704 5702 5700 5699 5698 5697 5696 5695 5693 5692 5691 5690
5732 5731 5730 5728 5727 5727 5724 5723 5721 5721 5720 5719 5719 5719 5718 5716 5716 5715 5714 5714 5716 5720 5721 5720 5719 5718 5715 5713 5711 5707 5704 5702 5700 5699 5697 5697 5696 5695 5694 5693 5692 5691 5690
5730 5728 5728 5725 5725 5723 5722 5720 5719 5718 5718 5716 5715 5716 5716 5716 5717 5715 5714 5713 5714 5717 5717 5718 5718 5716 5714 5711 5708 5704 5702 5701 5699 5697 5696 5695 5695 5694 5693 5692 5691 5691 5690
5728 5727 5725 5723 5722 5721 5720 5718 5717 5716 5715 5714 5714 5713 5712 5714 5714 5713 5713 5711 5709 5712 5713 5713 5715 5714 5712 5710 5707 5703 5702 5700 5698 5696 5695 5694 5694 5693 5692 5691 5690 5690 5690
5725 5723 5722 5720 5718 5717 5716 5714 5714 5713 5712 5712 5712 5710 5710 5712 5712 5712 5712 5711 5706 5704 5706 5709 5710 5711 5709 5708 5704 5703 5702 5698 5696 5695 5694 5693 5692 5692 5691 5690 5689 5689 5688
5721 5720 5718 5716 5714 5713 5713 5711 5710 5710 5708 5708 5708 5707 5706 5708 5709 5709 5709 5708 5708 5704 5703 5708 5707 5709 5706 5706 5701 5701 5700 5697 5695 5694 5693 5692 5692 5690 5689 5688 5688 5687 5686
5716 5715 5713 5711 5710 5709 5708 5707 5707 5706 5704 5704 5704 5703 5703 5703 5704 5705 5705 5705 5705 5704 5700 5703 5706 5705 5702 5701 5700 5699 5698 5696 5696 5693 5692 5691 5691 5689 5688 5687 5686 5685 5684
5711 5710 5708 5707 5705 5704 5704 5703 5702 5701 5700 5699 5699 5698 5698 5699 5698 5699 5699 5700 5700 5699 5698 5695 5698 5699 5697 5697 5696 5696 5697 5696 5696 5693 5691 5690 5689 5688 5687 5686 5685 5684 5682
5706 5704 5703 5701 5700 5699 5698 5698 5697 5696 5695 5695 5694 5694 5694 5694 5693 5694 5694 5695 5695 5697 5696 5694 5694 5694 5695 5694 5693 5693 5695 5693 5694 5693 5690 5689 5688 5687 5686 5685 5684 5683 5681
5700 5699 5698 5697 5696 5695 5693 5692 5692 5691 5690 5690 5689 5689 5689 5689 5689 5689 5689 5688 5689 5690 5690 5691 5691 5691 5690 5691 5690 5690 5691 5691 5693 5694 5691 5690 5688 5686 5685 5684 5683 5681 5680
5695 5693 5692 5691 5691 5690 5689 5687 5686 5686 5685 5684 5684 5684 5685 5683 5682 5682 5685 5684 5684 5684 5686 5686 5687 5687 5686 5685 5686 5689 5689 5690 5691 5692 5691 5690 5689 5688 5687 5684 5682 5681 5679
5689 5687 5686 5685 5685 5686 5681 5678 5678 5680 5679 5679 5678 5679 5679 5678 5677 5675 5676 5676 5677 5678 5680 5681 5682 5681 5680 5683 5683 5685 5685 5684 5684 5689 5687 5688 5689 5689 5688 5687 5684 5681 5678
5680 5680 5680 5680 5679 5676 5672 5670 5669 5672 5673 5673 5673 5673 5676 5676 5674 5675 5673 5671 5671 5671 5671 5674 5676 5676 5677 5678 5678 5679 5679 5679 5680 5684 5683 5684 5686 5686 5687 5686 5683 5679 5676
5672 5672 5672 5672 5671 5669 5665 5664 5663 5665 5667 5667 5667 5668 5668 5668 5669 5668 5669 5670 5671 5670 5669 5669 5671 5672 5674 5674 5673 5674 5674 5675 5677 5679 5679 5679 5683 5683 5686 5684 5680 5677 5674
5664 5664 5665 5664 5663 5661 5657 5656 5655 5660 5661 5662 5663 5663 5663 5663 5660 5658 5661 5663 5664 5665 5664 5664 5663 5664 5664 5665 5667 5669 5670 5671 5672 5675 5676 5675 5678 5680 5681 5681 5678 5675 5673
5656 5657 5657 5657 5656 5654 5650 5649 5648 5655 5656 5658 5658 5658 5655 5654 5652 5651 5654 5656 5656 5658 5660 5661 5658 5658 5660 5661 5660 5663 5666 5667 5668 5670 5672 5670 5673 5674 5674 5678 5677 5674 5670